Tracking 30061 objects as of 9-Dec-2024
HD Live streaming from Space Station
objects crossing your sky now

METEOSAT 12 (MTG I1)

Track METEOSAT 12 (MTG I1) now!
METEOSAT 12 (MTG I1) is classified as:


NORAD ID: 54743
Int'l Code: 2022-170C
Perigee: 35,788.5 km
Apogee: 35,797.4 km
Inclination: 0.6 °
Period: 1,436.1 minutes
Semi major axis: 42163 km
RCS: Unknown
Launch date: December 13, 2022
Source: European Organisation for the Exploitation of Meteorological Satellites (EUME)
Launch site: FRENCH GUIANA (FRGUI)
Your satellite tracking list
Your tracking list is empty




NASA's NSSDC Master Catalog

Two Line Element Set (TLE):
1 54743U 22170C   24343.41993925  .00000010  00000-0  00000+0 0  9993
2 54743   0.6389  44.3370 0001061 191.0883 353.1404  1.00274547  7399
Source of the keplerian elements: AFSPC